When you browse on this site, cookies collect data to enhance your experience and personalize the content and advertising you see.
Visit our Privacy Policy to learn more. By continuing to use the site, you agree to this use of cookies and data.
  • In United Kingdom
  • List of Countries
  • For 7 days
  • Water Temperature
  • Weather Map
  • Weather Widgets
  • user-avatar
    Login

    Hourly Weather Korçe

    Today, 31 May, Sunday

    Time Temperature Precipitation Wind Pressure Humidity
    00:00 +8°C° 0 mm 1 mps 665 mmHg 93%
    01:00 +7°C° 0 mm 1 mps 664 mmHg 93%
    02:00 +7°C° 0 mm 1 mps 664 mmHg 93%
    03:00 +7°C° 0 mm 1 mps 664 mmHg 93%
    04:00 +7°C° 0 mm 1 mps 664 mmHg 93%
    05:00 +8°C° 0.1 mm 1 mps 664 mmHg 90%
    06:00 +9°C° 0.1 mm 1 mps 664 mmHg 86%
    07:00 +10°C° 0.1 mm 1 mps 665 mmHg 82%
    08:00 +12°C° 0.3 mm 1 mps 665 mmHg 77%
    09:00 +13°C° 0.3 mm 2 mps 666 mmHg 72%
    10:00 +14°C° 0.3 mm 2 mps 666 mmHg 66%
    11:00 +14°C° 1.2 mm 2 mps 666 mmHg 68%
    12:00 +15°C° 1.2 mm 2 mps 665 mmHg 69%
    13:00 +15°C° 1.2 mm 2 mps 665 mmHg 71%
    14:00 +14°C° 1.1 mm 2 mps 665 mmHg 72%
    15:00 +14°C° 1.1 mm 2 mps 665 mmHg 74%
    16:00 +14°C° 1.1 mm 2 mps 664 mmHg 75%
    17:00 +12°C° 0.5 mm 2 mps 664 mmHg 81%
    18:00 +11°C° 0.5 mm 1 mps 664 mmHg 86%
    19:00 +9°C° 0.5 mm 1 mps 663 mmHg 91%
    20:00 +9°C° 0 mm 1 mps 663 mmHg 92%
    21:00 +8°C° 0 mm 1 mps 663 mmHg 93%
    22:00 +7°C° 0 mm 0 mps 664 mmHg 94%
    23:00 +7°C° 0 mm 0 mps 663 mmHg 95%

    Tomorrow, 1 June, Monday

    Time Temperature Precipitation Wind Pressure Humidity
    00:00 +7°C° 0 mm 0 mps 663 mmHg 95%
    01:00 +7°C° 0 mm 0 mps 663 mmHg 96%
    02:00 +7°C° 0.1 mm 0 mps 663 mmHg 96%
    03:00 +7°C° 0.1 mm 1 mps 663 mmHg 96%
    04:00 +7°C° 0.1 mm 1 mps 663 mmHg 96%
    05:00 +8°C° 0.4 mm 1 mps 663 mmHg 93%
    06:00 +8°C° 0.4 mm 1 mps 663 mmHg 89%
    07:00 +8°C° 0.4 mm 2 mps 663 mmHg 86%
    08:00 +9°C° 0.3 mm 2 mps 664 mmHg 79%
    09:00 +10°C° 0.3 mm 2 mps 664 mmHg 72%
    10:00 +13°C° 0.3 mm 2 mps 664 mmHg 66%
    11:00 +13°C° 0.4 mm 2 mps 664 mmHg 67%
    12:00 +12°C° 0.4 mm 3 mps 664 mmHg 67%
    13:00 +12°C° 0.4 mm 3 mps 664 mmHg 68%
    14:00 +12°C° 0.5 mm 3 mps 663 mmHg 70%
    15:00 +12°C° 0.5 mm 3 mps 663 mmHg 72%
    16:00 +12°C° 0.5 mm 3 mps 663 mmHg 74%
    17:00 +12°C° 0.2 mm 2 mps 663 mmHg 79%
    18:00 +10°C° 0.2 mm 2 mps 663 mmHg 84%
    19:00 +8°C° 0.2 mm 2 mps 662 mmHg 89%
    20:00 +9°C° 0 mm 1 mps 662 mmHg 90%
    21:00 +8°C° 0 mm 1 mps 663 mmHg 92%
    22:00 +8°C° 0 mm 1 mps 663 mmHg 93%
    23:00 +8°C° 0 mm 1 mps 662 mmHg 93%

    Day after tomorrow, 2 June, Tuesday

    Time Temperature Precipitation Wind Pressure Humidity
    00:00 +7°C° 0 mm 1 mps 662 mmHg 93%
    01:00 +7°C° 0 mm 1 mps 662 mmHg 92%
    02:00 +7°C° 0 mm 1 mps 662 mmHg 92%
    03:00 +7°C° 0 mm 1 mps 662 mmHg 91%
    04:00 +7°C° 0 mm 1 mps 662 mmHg 90%
    05:00 +8°C° 0 mm 1 mps 662 mmHg 84%
    06:00 +10°C° 0 mm 1 mps 663 mmHg 77%
    07:00 +12°C° 0 mm 1 mps 664 mmHg 71%
    08:00 +13°C° 0 mm 1 mps 664 mmHg 65%
    09:00 +15°C° 0 mm 2 mps 664 mmHg 58%
    10:00 +16°C° 0 mm 2 mps 665 mmHg 52%
    11:00 +17°C° 0 mm 2 mps 665 mmHg 52%
    12:00 +17°C° 0 mm 2 mps 665 mmHg 52%
    13:00 +17°C° 0 mm 2 mps 664 mmHg 52%
    14:00 +16°C° 0.2 mm 2 mps 664 mmHg 57%
    15:00 +16°C° 0.2 mm 2 mps 664 mmHg 62%
    16:00 +14°C° 0.2 mm 3 mps 663 mmHg 67%
    17:00 +14°C° 0.1 mm 2 mps 663 mmHg 73%
    18:00 +12°C° 0.1 mm 2 mps 662 mmHg 80%
    19:00 +10°C° 0.1 mm 2 mps 662 mmHg 87%
    20:00 +10°C° 0 mm 1 mps 662 mmHg 87%
    21:00 +9°C° 0 mm 1 mps 662 mmHg 87%
    22:00 +8°C° 0 mm 1 mps 662 mmHg 87%
    23:00 +8°C° 0 mm 1 mps 662 mmHg 85%

    3 June, Wednesday

    Time Temperature Precipitation Wind Pressure Humidity
    00:00 +8°C° 0 mm 1 mps 661 mmHg 83%
    01:00 +6°C° 0 mm 0 mps 661 mmHg 81%
    02:00 +6°C° 0 mm 0 mps 661 mmHg 80%
    03:00 +6°C° 0 mm 0 mps 661 mmHg 80%
    04:00 +6°C° 0 mm 0 mps 661 mmHg 79%
    05:00 +8°C° 0 mm 0 mps 662 mmHg 74%
    06:00 +10°C° 0 mm 0 mps 662 mmHg 69%
    07:00 +12°C° 0 mm 0 mps 663 mmHg 65%
    08:00 +14°C° 0 mm 1 mps 663 mmHg 61%
    09:00 +15°C° 0 mm 1 mps 664 mmHg 58%
    10:00 +16°C° 0 mm 2 mps 665 mmHg 55%
    11:00 +17°C° 0 mm 2 mps 664 mmHg 55%
    12:00 +17°C° 0 mm 3 mps 664 mmHg 55%
    13:00 +17°C° 0 mm 3 mps 664 mmHg 55%
    14:00 +17°C° 0.1 mm 3 mps 664 mmHg 58%
    15:00 +16°C° 0.1 mm 3 mps 664 mmHg 61%
    16:00 +16°C° 0.1 mm 3 mps 664 mmHg 63%
    17:00 +14°C° 0 mm 2 mps 664 mmHg 70%
    18:00 +13°C° 0 mm 2 mps 663 mmHg 76%
    19:00 +11°C° 0 mm 1 mps 663 mmHg 82%
    20:00 +10°C° 0 mm 1 mps 663 mmHg 83%
    21:00 +9°C° 0 mm 1 mps 663 mmHg 84%
    22:00 +9°C° 0 mm 1 mps 664 mmHg 85%
    23:00 +8°C° 0 mm 1 mps 663 mmHg 84%

    4 June, Thursday

    Time Temperature Precipitation Wind Pressure Humidity
    00:00 +8°C° 0 mm 1 mps 663 mmHg 83%
    01:00 +8°C° 0 mm 1 mps 663 mmHg 82%
    02:00 +8°C° 0 mm 1 mps 663 mmHg 82%
    03:00 +8°C° 0 mm 1 mps 663 mmHg 81%
    04:00 +7°C° 0 mm 1 mps 663 mmHg 81%
    05:00 +10°C° 0 mm 1 mps 664 mmHg 76%
    06:00 +12°C° 0 mm 1 mps 665 mmHg 71%
    07:00 +14°C° 0 mm 1 mps 666 mmHg 65%
    08:00 +15°C° 0 mm 1 mps 666 mmHg 60%
    09:00 +17°C° 0 mm 2 mps 667 mmHg 55%
    10:00 +18°C° 0 mm 2 mps 667 mmHg 50%
    11:00 +19°C° 0 mm 2 mps 667 mmHg 50%
    12:00 +20°C° 0 mm 3 mps 668 mmHg 49%
    13:00 +20°C° 0 mm 3 mps 668 mmHg 48%
    14:00 +20°C° 0 mm 3 mps 667 mmHg 51%
    15:00 +19°C° 0 mm 3 mps 667 mmHg 54%
    16:00 +19°C° 0 mm 3 mps 667 mmHg 56%
    17:00 +17°C° 0 mm 2 mps 667 mmHg 66%
    18:00 +15°C° 0 mm 2 mps 666 mmHg 75%
    19:00 +13°C° 0 mm 1 mps 666 mmHg 84%
    20:00 +12°C° 0 mm 1 mps 666 mmHg 85%
    21:00 +12°C° 0 mm 1 mps 666 mmHg 87%
    22:00 +11°C° 0 mm 1 mps 666 mmHg 88%
    23:00 +11°C° 0 mm 1 mps 666 mmHg 86%

    5 June, Friday

    Time Temperature Precipitation Wind Pressure Humidity
    00:00 +10°C° 0 mm 1 mps 666 mmHg 85%
    01:00 +10°C° 0 mm 1 mps 666 mmHg 83%
    02:00 +10°C° 0 mm 1 mps 666 mmHg 82%
    03:00 +10°C° 0 mm 1 mps 665 mmHg 80%
    04:00 +9°C° 0 mm 1 mps 665 mmHg 78%
    05:00 +12°C° 0 mm 1 mps 666 mmHg 72%
    06:00 +13°C° 0 mm 0 mps 667 mmHg 66%
    07:00 +15°C° 0 mm 0 mps 668 mmHg 60%
    08:00 +18°C° 0 mm 1 mps 668 mmHg 55%
    09:00 +20°C° 0 mm 1 mps 669 mmHg 51%
    10:00 +22°C° 0 mm 1 mps 669 mmHg 46%
    11:00 +21°C° 0 mm 2 mps 669 mmHg 45%
    12:00 +23°C° 0 mm 2 mps 669 mmHg 45%
    13:00 +23°C° 0 mm 2 mps 669 mmHg 44%
    14:00 +23°C° 0 mm 2 mps 669 mmHg 47%
    15:00 +21°C° 0 mm 2 mps 669 mmHg 50%
    16:00 +21°C° 0 mm 2 mps 669 mmHg 53%
    17:00 +19°C° 0 mm 2 mps 668 mmHg 62%
    18:00 +18°C° 0 mm 1 mps 668 mmHg 71%
    19:00 +15°C° 0 mm 1 mps 667 mmHg 80%
    20:00 +14°C° 0 mm 1 mps 667 mmHg 81%
    21:00 +13°C° 0 mm 1 mps 667 mmHg 83%
    22:00 +13°C° 0 mm 1 mps 667 mmHg 84%
    23:00 +13°C° 0 mm 1 mps 667 mmHg 82%
    Show more